Regional Weather Roundup
Issued by NWS Charleston, SC

Home | Current Version | Previous Version | Text Only | Print | Product List | Glossary On
Versions: 1 2 3 4 5 6 7 8 9 10 11 12 13 14 15 16 17 18 19 20 21 22 23 24 25 26 27 28 29 30 31 32 33 34 35 36 37 38 39 40 41 42 43 44 45 46 47 48 49 50
000
ASUS42 KCHS 250027
RWRCHS

Regional Weather Roundup
National Weather Service Charleston SC
700 PM EST SAT FEB 24 2018

NOTE: "fair" indicates few or no clouds below 12,000 feet with no
significant weather and/or obstructions to visibility.

Not all stations are quality controlled. Use data with caution,
especially dewpoint observations.

SCZ027-030-031-034>040-042>050-250100-
...Southeast South Carolina...

CITY           SKY/WX    TMP DP  RH WIND       PRES   REMARKS
N Charleston   FAIR      69  64  84 S12       30.14R
6HR MIN TEMP:  69; 6HR MAX TEMP:  83;

Waterfront Prk   N/A     68  65  90 S8        29.99S
Mount Pleasant FAIR      68  64  88 CALM      30.15S
Johns Island   FAIR      66  64  94 S6        30.15S
Pinopolis        N/A     72  61  68 S5        30.05R
Moncks Corner  FAIR      68  59  73 S5        30.13S
Summerville    FAIR      70  61  73 CALM      30.14S
Beaufort MCAS  FAIR      69  67  93 S8        30.14R
6HR MIN TEMP:  69; 6HR MAX TEMP:  81;

Beaufort Arpt  FAIR      66  63  88 S5        30.14R
Hilton Head Is CLEAR     66  64  94 S9        30.15S
Walterboro     FAIR      68  61  77 S7        30.14S
Allendale      FAIR      73  64  73 SE9       30.10R

...Southern Midlands and Pee Dee...

CITY           SKY/WX    TMP DP  RH WIND       PRES   REMARKS
Georgetown     FAIR      66  66 100 S8        30.16R
Kingstree      FAIR      72  59  64 SE9       30.11S
Orangeburg     FAIR      73  56  54 S8        30.09S
6HR MIN TEMP:  72; 6HR MAX TEMP:  81;

Barnwell         N/A     75  61  60 S5        30.09S
Aiken          FAIR      70  59  68 S5        30.12R
Manning        FAIR      72  50  46 MISG      30.11S
Columbia       FAIR      75  59  57 S3        30.07S
6HR MIN TEMP:  75; 6HR MAX TEMP:  83;

Sumter         FAIR      71  56  58 S5        30.07R
6HR MIN TEMP:  71; 6HR MAX TEMP:  82;

Florence       FAIR      73  58  59 S7        30.10R
6HR MIN TEMP:  73; 6HR MAX TEMP:  81;

Myrtle Beach   FAIR      67  63  87 S13       30.15R
N Myrtle Beach FAIR      66  63  90 SW15      30.14R
6HR MIN TEMP:  65; 6HR MAX TEMP:  74;


$$

GAZ063-065-086>088-099>101-113>116-118-119-134>141-150-250100-
...Southeast Georgia...

CITY           SKY/WX    TMP DP  RH WIND       PRES   REMARKS
Savannah Arpt  FAIR      71  61  70 S15       30.13R
6HR MIN TEMP:  71; 6HR MAX TEMP:  84;

Hunter AAF     FAIR      69  63  79 S7        30.11R
6HR MIN TEMP:  69; 6HR MAX TEMP:  79;

Fort Stewart   FAIR      71  62  71 SE6       30.10R
6HR MIN TEMP:  71; 6HR MAX TEMP:  84;

Statesboro     FAIR      75  59  57 SE7       30.10S
Sylvania       FAIR      74  65  74 S3        30.11S
Claxton        FAIR      74  62  66 E5        30.10S

...CSRA, Central and far Southeast Georgia...

CITY           SKY/WX    TMP DP  RH WIND       PRES   REMARKS
Thomson        FAIR      73  58  59 W3        30.12S
Augusta-Bush   FAIR      73  58  59 S6        30.06S
6HR MIN TEMP:  73; 6HR MAX TEMP:  84;

Augusta-Daniel FAIR      77  59  53 S6        30.08R
Swainsboro     FAIR      73  59  60 S5        30.09S
Vidalia        FAIR      75  59  57 S3        30.09S
Eastman        FAIR      75  49  38 S3        30.10S
Hazlehurst     FAIR      75  52  45 S3        30.08S
Alma           FAIR      74  59  59 S5        30.09S
6HR MIN TEMP:  74; 6HR MAX TEMP:  85;

Waycross       FAIR      73  57  55 S3        30.10S
Jesup          FAIR      73  61  64 CALM      30.12R
Baxley         FAIR      72  57  60 S5        30.09S
Brunswick      FAIR      70  63  78 SE8       30.14S
Saint Simons   FAIR      69  65  86 SE9       30.13S
6HR MIN TEMP:  69; 6HR MAX TEMP:  76;


$$

SCZ027-028-034-036>038-045-046-048>050-GAZ119-141-250100-
...Lake and Supplemental Coastal Observations...

STATION/POSITION TIME  TEMP    WIND        PRES    WAVE   SWELL
                       AIR SEA DIR/SP/G            HT/PER HT/PER/DIR
                 (UTC) (F)     (DEG/KT/KT) (MB)    (FT/S) (FT/S/D)
Winyah Bay       2345   69     220/  9     1021.0R
Lake Murray      2320   72     210/  5/  6 1017.6
ACE Basin NERRS  2345   67        CALM     1021.0R
Fort Pulaski     0000   67 63  170/  5/  8 1020.8
Sapelo Island    0000   68     170/  7     1020.0

$$

ANZ835-935-AMZ111-154-330-350-352-354-370-450-454-472-250100-
...C-MAN and Buoy Observations...

STATION/POSITION TIME  TEMP    WIND        PRES    WAVE   SWELL
                       AIR SEA DIR/SP/G            HT/PER HT/PER/DIR
                 (UTC) (F)     (DEG/KT/KT) (MB)    (FT/S) (FT/S/D)
Buoy 41004       0010   70 71  190/  6/  8 1021.1
Buoy 41008       2350   64 61  130/ 10/ 10 1020.2F   3/10   3/110/10
Folly Beach CMAN 0000   67     180/ 11/ 12 1021.4R
Capers Nearshore 0008   63 65  180/ 10/ 14 1020.6R
Fripp Nearshore  2308   62 63  160/  8/ 12 1019.3F


STATION/POSITION TIME  TEMP    WIND        PRES    WAVE   SWELL
                       AIR SEA DIR/SP/G            HT/PER HT/PER/DIR
                 (UTC) (F)     (DEG/KT/KT) (MB)    (FT/S) (FT/S/D)
5E St. Marys GA  0000      63                N/A     3/10   2/120/11
Frying Pan Buoy  0010   72 70  210/ 14/ 17 1021.2
Buoy 41025       0010   72 74  230/ 17/ 21 1021.0
Cape Lookout NC  0000          210/ 10/ 12 1021.0F
Buoy 41002       2350   72 73  200/  8/ 12 1023.7F   6/ 9   5/ 90/ 9
Buoy 41010       NOT AVBL
St Augustine FL  0000   71 69  150/ 11/ 11 1020.8F


$$




USA.gov is the U.S. government's official web portal to all federal, state and local government web resources and services.